Cleveland, OH

4:35 AM EST on January 18, 2017 (GMT -0500)
Cleveland-Hopkins International

Weather History for KCLE - October, 2013

Change the Weather History Date:

Tuesday, October 22, 2013

  Actual Average Record
Temperature  
Mean Temperature 44 °F 52 °F  
Max Temperature 51 °F 60 °F 81 °F (1947)
Min Temperature 37 °F 44 °F 27 °F (1976)
Degree Days  
Heating Degree Days 21 13  
Month to date heating degree days 154 224  
Since 1 July heating degree days 248 327  
Cooling Degree Days 0 0  
Month to date cooling degree days 34 10  
Year to date cooling degree days 889 814  
Moisture  
Dew Point 32 °F    
Average Humidity 61    
Maximum Humidity 80    
Minimum Humidity 42    
Precipitation  
Precipitation T in 0.10 in 0.70 in (1990)
Month to date precipitation 3.65 2.20  
Year to date precipitation 33.82 31.55  
Snow  
Snow 0.00 in 0.10 in - ()
Month to date snowfall 0.0 0.1  
Since 1 July snowfall 0.0 0.1  
Since 1 September snowfall 0.0 0.1  
Snow Depth 0.00 in    
Sea Level Pressure  
Sea Level Pressure 29.93 in    
Wind  
Wind Speed 10 mph (WSW)    
Max Wind Speed 17 mph    
Max Gust Speed 24 mph    
Visibility 10 miles    
Events Rain    
T = Trace of Precipitation, MM = Missing Value Source: NWS Daily Summary

Daily Weather History Graph

Daily Weather History Graph

Search for Another Location

Airport or City:

Trip Planner

Search our weather history database for the weather conditions in past years. The results will help you decide how hot, cold, wet, or windy it might be!

Date:

Astronomy

Oct. 22, 2013 Rise Set
Actual Time 7:47 AM EDT 6:35 PM EDT
Civil Twilight 7:19 AM EDT 7:03 PM EDT
Nautical Twilight 6:46 AM EDT 7:35 PM EDT
Astronomical Twilight 6:14 AM EDT 8:07 PM EDT
Moon 9:13 PM EDT (10/22) 11:16 AM EDT (10/22)
Length of Visible Light 11h 44m
Length of Day
10h 48m
Waning Gibbous, 87% of the Moon is Illuminated
Oct 22
Waning Gibbous
Oct 26
Last Quarter
Nov 3
New
Nov 10
First Quarter
Nov 17
Full

Hourly Weather History & Observations

Time (EDT) Temp. Windchill Dew Point Humidity Pressure Visibility Wind Dir Wind Speed Gust Speed Precip Events Conditions
12:22 AM 50.0 °F - 45.0 °F 83% 29.88 in 4.0 mi West 11.5 mph - 0.00 in Rain Light Rain
12:27 AM 48.9 °F - 45.0 °F 86% 29.88 in 5.0 mi West 17.3 mph 24.2 mph 0.00 in Rain Light Rain
12:46 AM 48.2 °F - 42.8 °F 82% 29.89 in 7.0 mi West 12.7 mph - 0.00 in Rain Light Rain
12:51 AM 48.0 °F - 43.0 °F 83% 29.90 in 7.0 mi WNW 15.0 mph 20.7 mph 0.00 in Rain Light Rain
1:18 AM 46.9 °F - 41.0 °F 80% 29.90 in 10.0 mi West 13.8 mph - 0.00 in   Overcast
1:51 AM 46.0 °F 41.4 °F 37.0 °F 71% 29.91 in 10.0 mi WSW 9.2 mph - 0.00 in   Mostly Cloudy
2:51 AM 43.0 °F 37.2 °F 35.1 °F 74% 29.91 in 10.0 mi WSW 10.4 mph - N/A   Partly Cloudy
3:51 AM 41.0 °F 34.7 °F 33.1 °F 73% 29.91 in 10.0 mi WSW 10.4 mph - N/A   Partly Cloudy
4:51 AM 39.0 °F 32.3 °F 32.0 °F 76% 29.93 in 10.0 mi WSW 10.4 mph - N/A   Scattered Clouds
5:51 AM 37.9 °F 30.9 °F 30.0 °F 73% 29.94 in 10.0 mi SW 10.4 mph - N/A   Scattered Clouds
6:51 AM 37.9 °F 30.5 °F 30.0 °F 73% 29.95 in 10.0 mi WSW 11.5 mph - N/A   Mostly Cloudy
7:51 AM 37.0 °F 28.9 °F 30.0 °F 76% 29.97 in 10.0 mi WSW 12.7 mph - N/A   Scattered Clouds
8:51 AM 37.9 °F 30.9 °F 30.0 °F 73% 29.99 in 10.0 mi WSW 10.4 mph - N/A   Partly Cloudy
9:51 AM 41.0 °F 33.9 °F 30.9 °F 67% 30.00 in 10.0 mi WSW 12.7 mph - N/A   Partly Cloudy
10:51 AM 45.0 °F 40.1 °F 30.9 °F 58% 30.00 in 10.0 mi WSW 9.2 mph - N/A   Partly Cloudy
11:51 AM 46.9 °F - 28.9 °F 50% 29.99 in 10.0 mi West 13.8 mph - N/A   Scattered Clouds
12:51 PM 48.0 °F - 28.9 °F 48% 29.98 in 10.0 mi West 12.7 mph 21.9 mph N/A   Scattered Clouds
1:51 PM 48.9 °F - 28.9 °F 46% 29.96 in 10.0 mi WSW 12.7 mph - N/A   Scattered Clouds
2:51 PM 50.0 °F - 30.0 °F 46% 29.93 in 10.0 mi WSW 15.0 mph - N/A   Scattered Clouds
3:51 PM 50.0 °F - 28.9 °F 44% 29.92 in 10.0 mi West 11.5 mph - N/A   Scattered Clouds
4:51 PM 48.9 °F - 28.9 °F 46% 29.92 in 10.0 mi West 11.5 mph - N/A   Mostly Cloudy
5:51 PM 48.9 °F - 28.9 °F 46% 29.92 in 10.0 mi West 9.2 mph - N/A   Scattered Clouds
6:51 PM 46.0 °F 44.8 °F 28.9 °F 51% 29.92 in 10.0 mi SW 3.5 mph - N/A   Mostly Cloudy
7:51 PM 46.0 °F 43.9 °F 28.0 °F 50% 29.92 in 10.0 mi SW 4.6 mph - N/A   Overcast
8:51 PM 46.0 °F 43.1 °F 28.0 °F 50% 29.91 in 10.0 mi SSW 5.8 mph - N/A   Overcast
9:51 PM 46.0 °F 41.4 °F 28.9 °F 51% 29.91 in 10.0 mi SW 9.2 mph - N/A   Overcast
10:51 PM 45.0 °F 38.9 °F 28.9 °F 53% 29.92 in 10.0 mi West 12.7 mph - N/A   Overcast
11:51 PM 44.1 °F 39.0 °F 28.0 °F 53% 29.91 in 10.0 mi WSW 9.2 mph - N/A   Overcast